Temperature
19 19 19 20 20 19 19 19 19 19 19 19 19 19 19 19 19 19 19 18 18 18 18 18 18 18 18 18 18 18 18 18 18 18 18 18 18 18 18 18 18 18 18
20 20 20 20 20 20 19 19 19 19 19 19 19 19 19 19 19 19 19 19 18 18 18 18 18 18 18 18 18 18 18 18 18 18 18 18 18 18 18 18 18 18 17
20 20 20 20 20 20 19 19 19 19 19 19 19 19 19 19 19 18 19 18 18 18 18 18 18 18 18 18 18 18 18 18 18 18 18 17 17 18 18 18 18 17 17
20 20 20 20 20 20 19 19 19 19 19 19 19 19 19 19 19 19 18 18 18 18 18 18 18 18 19 18 18 18 18 18 18 18 18 17 18 18 17 17 17 17 17
20 20 20 20 20 20 20 19 19 19 19 19 19 19 19 19 19 19 19 18 18 18 18 18 18 18 18 18 18 18 18 18 18 18 18 18 18 17 17 17 17 17 17
20 20 20 20 20 20 19 19 19 19 19 19 19 19 19 19 19 19 19 19 19 19 18 18 18 18 18 18 18 18 18 18 18 18 18 18 18 18 18 18 17 17 17
20 20 20 20 20 20 19 19 19 19 19 19 19 19 19 19 19 19 19 19 19 19 19 18 18 18 18 18 18 18 18 18 18 18 18 18 18 18 18 18 17 17 17
20 20 20 20 20 20 19 19 19 19 19 19 19 19 19 19 19 19 19 19 19 19 19 19 18 18 18 18 18 18 18 18 18 18 18 18 18 18 18 17 17 17 17
20 20 20 20 20 20 19 19 19 19 19 19 19 19 19 19 19 19 19 19 19 19 19 18 18 18 18 18 18 18 18 18 18 18 18 18 18 18 18 17 17 17 17
20 20 20 20 20 19 19 19 19 19 19 19 19 19 19 19 19 19 19 19 19 19 19 18 18 18 18 18 18 18 18 18 18 18 18 18 18 18 18 17 17 17 17
20 20 20 20 20 19 19 19 19 19 19 19 19 19 19 19 19 19 19 19 19 19 18 18 18 18 18 18 18 18 18 18 18 18 18 18 18 18 17 17 17 17 17
20 20 20 20 20 19 19 19 19 19 19 19 19 19 19 19 19 19 19 18 19 18 18 18 18 18 18 18 18 18 18 18 18 18 18 18 18 17 17 17 17 17 17
20 20 20 20 20 19 19 19 19 19 19 19 19 19 19 18 18 18 18 18 18 18 18 18 18 18 18 18 18 18 18 18 18 18 18 18 18 17 17 17 17 17 17
20 20 20 20 20 19 19 19 19 19 19 19 19 19 19 18 18 18 18 18 18 18 18 18 18 18 18 18 18 18 18 18 18 18 18 18 18 17 17 17 17 17 17
20 20 20 20 19 19 19 19 19 19 19 19 19 19 19 19 18 18 18 18 18 18 18 18 18 18 18 18 18 18 18 18 18 18 18 18 17 17 17 17 17 17 17
20 20 20 20 19 19 19 19 19 19 19 19 19 18 19 19 19 18 18 18 18 18 18 18 18 18 18 18 18 18 18 18 18 18 18 18 17 17 17 17 17 17 17
20 20 20 20 19 19 19 19 19 19 19 19 19 19 19 19 19 19 18 18 18 18 18 18 18 18 18 18 18 18 18 18 18 18 17 17 17 17 17 17 17 17 17
21 20 20 20 20 20 19 19 19 19 19 19 19 19 19 19 19 19 19 18 18 18 18 18 18 18 18 18 18 18 18 18 17 17 17 17 17 17 17 17 17 17 17
21 20 20 20 20 20 19 19 19 19 19 19 19 19 19 19 19 19 19 19 18 18 18 18 18 18 18 18 18 18 17 17 17 17 17 17 17 17 17 17 17 17 17
21 20 20 20 20 20 19 19 19 19 19 19 19 19 19 19 19 19 18 18 18 18 18 18 18 18 18 18 18 17 17 17 17 17 17 17 17 17 17 17 17 17 17
21 20 20 20 20 19 19 19 19 19 19 19 19 19 19 19 19 19 19 18 18 18 18 18 18 18 18 18 18 17 17 17 17 17 17 17 17 17 17 17 17 17 16
21 20 20 20 20 19 19 19 19 19 19 19 19 19 19 18 18 19 19 18 18 18 18 18 18 18 18 18 18 18 17 17 17 17 17 17 17 17 16 16 16 16 16
21 21 20 20 20 20 19 19 19 19 19 19 19 19 19 19 18 18 18 18 18 18 18 18 18 18 18 18 18 18 17 17 17 17 17 17 17 17 16 16 16 16 16
21 21 20 20 20 20 19 19 19 19 19 19 19 19 18 18 18 18 18 18 18 18 18 18 18 18 18 18 18 18 18 18 17 17 17 16 16 16 16 16 16 16 16
21 21 20 20 20 20 19 19 19 19 19 19 19 19 19 18 18 18 18 18 18 18 18 18 18 18 18 18 18 18 18 18 17 17 17 17 16 16 16 16 16 16 16
21 21 21 20 20 20 20 19 19 19 19 19 19 19 19 19 18 18 18 18 18 18 18 18 18 18 18 18 18 18 18 18 18 17 17 17 16 16 16 16 16 16 16
Wind_Speed
3 6 10 12 12 12 13 13 14 15 15 15 15 15 15 15 15 15 16 16 16 15 15 14 15 15 14 14 15 15 15 16 16 16 17 17 17 17 16 17 16 14 16
7 8 11 12 12 13 13 14 14 15 15 15 15 15 15 15 15 15 16 16 16 15 15 14 14 13 14 14 15 15 15 15 15 16 16 15 16 16 16 16 16 14 16
8 9 12 12 13 13 14 14 14 14 14 14 14 15 15 14 15 15 15 15 15 15 14 13 13 13 13 13 14 14 14 14 14 14 14 11 13 14 15 16 17 16 16
9 9 12 14 14 14 14 14 14 13 14 14 14 14 15 15 15 15 15 15 15 15 14 13 13 12 12 13 13 13 13 13 13 12 10 9 10 13 15 16 16 16 15
8 10 13 15 15 14 14 13 13 13 13 14 14 14 14 14 14 15 15 15 14 14 13 13 12 12 12 13 12 12 11 11 11 10 8 8 9 13 15 15 15 15 14
7 10 12 15 15 15 14 13 13 12 13 13 14 14 14 14 14 14 14 14 14 13 13 12 12 11 12 12 11 10 10 10 9 8 9 9 10 13 15 15 15 15 14
8 9 12 15 15 14 14 13 12 12 12 13 13 13 13 13 13 13 13 13 13 12 12 12 11 10 10 10 10 9 9 9 8 8 8 9 10 13 14 14 15 14 14
10 9 11 14 15 14 13 13 13 12 13 13 13 12 13 12 12 12 12 12 13 12 11 11 10 10 9 9 8 7 8 8 9 9 8 8 11 14 14 13 13 13 13
9 8 8 10 12 13 12 12 12 12 13 13 12 12 12 11 11 11 11 11 11 11 11 10 9 8 8 7 7 6 7 8 8 8 9 8 11 13 13 13 12 12 12
7 7 6 7 8 9 10 11 11 11 12 12 12 12 11 10 10 10 9 10 10 10 9 9 9 8 7 6 6 6 6 7 6 7 7 9 12 13 13 12 12 12 12
6 5 5 6 7 7 8 9 10 9 10 11 10 11 10 7 7 7 8 9 10 9 9 8 7 7 5 5 5 5 5 5 6 6 6 9 12 12 12 12 11 11 11
7 6 5 6 6 7 6 7 6 6 6 7 7 7 7 6 6 7 8 8 9 8 7 7 6 5 4 3 3 4 4 5 6 6 7 11 12 12 11 11 10 11 11
7 7 6 5 6 6 4 6 5 4 4 5 7 7 6 5 4 4 4 5 6 6 5 4 3 2 2 2 2 3 4 5 4 5 7 11 12 12 11 11 10 11 11
6 5 5 5 5 5 5 5 5 4 4 4 6 7 6 4 3 3 3 3 4 4 4 3 2 2 2 2 2 3 4 4 5 5 7 11 11 11 11 11 10 11 11
6 5 5 5 6 5 4 4 5 4 4 5 5 6 6 5 4 4 3 3 3 4 4 3 3 2 2 1 2 3 4 5 6 6 6 10 11 10 10 10 10 10 10
6 5 5 6 5 5 3 3 4 5 5 5 5 6 7 6 5 4 3 3 3 4 5 4 3 3 2 2 1 3 4 5 6 6 6 8 9 9 9 9 10 10 10
6 6 5 6 5 5 3 3 4 5 6 5 5 6 6 6 5 5 4 3 3 4 4 4 3 3 2 2 2 3 3 5 6 6 6 6 7 8 9 9 9 9 10
7 6 6 6 5 4 3 3 3 5 5 4 5 6 6 6 6 5 3 3 3 4 3 3 2 2 1 2 2 2 2 3 5 6 6 6 6 6 6 8 8 9 9
8 7 6 5 5 4 3 3 4 4 4 4 5 5 5 6 7 5 3 2 3 3 2 3 2 2 2 2 2 2 2 2 3 4 4 5 6 5 5 6 7 8 9
8 7 6 5 4 4 3 3 3 3 2 3 3 4 5 5 6 6 3 2 3 3 2 2 2 2 2 2 2 2 1 1 2 2 4 4 5 5 5 5 5 6 7
7 7 6 5 4 3 3 3 3 2 2 2 2 4 5 5 6 5 4 3 3 3 3 3 2 2 2 2 3 2 3 2 2 2 2 3 3 4 5 5 5 4 4
8 7 6 6 5 4 3 2 2 2 2 2 2 3 5 5 5 5 4 3 3 3 3 3 3 2 1 2 3 3 2 3 2 1 1 2 2 3 4 5 6 5 4
9 8 7 6 5 4 3 3 3 3 3 2 2 1 2 4 5 4 4 3 3 3 4 4 4 4 2 0 1 3 3 2 1 2 0 1 1 2 2 4 5 5 5
10 8 7 6 5 4 4 4 4 3 3 2 2 2 1 3 4 4 4 4 3 3 3 3 4 4 4 2 1 0 2 4 3 0 2 1 0 1 2 3 3 4 5
10 9 8 7 5 4 4 5 5 3 2 2 2 3 2 1 2 3 4 4 3 3 3 2 2 3 3 3 2 1 1 1 2 3 1 1 1 1 1 2 3 3 4
9 9 8 7 5 5 5 5 5 5 4 4 3 3 2 1 1 2 3 3 3 2 2 2 2 2 2 2 2 2 2 2 2 3 2 2 1 1 1 1 2 3 4
Wind_Direction
150 153 134 128 121 118 114 109 107 104 105 105 104 105 106 108 111 117 121 121 120 119 120 120 121 121 121 123 125 124 124 125 126 126 129 130 131 132 132 129 127 124 126
153 150 135 129 123 118 116 112 108 106 107 107 107 108 109 109 111 118 121 121 120 119 118 119 120 120 122 122 124 125 125 127 129 129 131 133 134 132 134 132 130 132 132
134 141 135 130 123 119 117 114 111 109 109 109 109 110 112 111 112 116 119 122 121 119 118 118 119 119 122 125 127 128 128 129 130 129 130 130 133 135 137 136 133 134 133
133 136 135 132 126 123 119 116 114 112 111 112 113 112 113 113 114 117 120 122 123 122 121 120 121 120 122 126 128 130 130 130 132 131 131 134 137 140 141 139 137 138 138
131 135 136 135 130 126 122 119 117 116 116 117 117 115 115 114 114 116 119 122 123 124 125 124 121 123 126 128 130 130 131 130 132 130 136 139 141 147 146 144 142 143 142
132 138 141 138 133 130 127 124 121 120 122 122 121 120 119 118 118 119 120 124 128 129 128 128 125 123 126 129 131 131 132 132 124 126 134 140 142 145 147 149 147 147 148
137 145 144 139 137 135 132 127 126 125 126 127 126 125 124 124 123 122 122 126 131 131 133 131 129 127 126 130 132 129 131 126 119 122 132 143 146 148 149 151 155 153 152
144 148 145 144 141 139 138 137 135 134 135 135 133 130 130 130 129 128 128 129 132 132 135 136 133 131 132 134 133 129 129 124 126 131 137 148 152 154 153 153 154 155 157
145 145 147 147 144 145 145 144 142 141 143 142 142 140 139 137 136 135 135 134 137 140 142 144 143 140 139 141 141 137 135 131 130 141 150 156 158 158 158 158 158 160 162
144 149 152 147 146 149 151 151 149 146 147 148 150 148 147 146 146 145 145 144 146 147 150 153 153 152 150 151 148 137 132 134 135 144 152 163 164 165 165 163 162 162 161
144 154 155 152 154 155 156 158 155 154 154 155 157 157 157 155 157 159 159 158 159 159 161 163 162 156 157 155 150 140 133 138 142 148 160 170 171 170 169 167 164 163 163
152 161 161 158 164 162 161 155 157 161 159 159 161 162 160 162 167 168 167 170 169 169 170 169 166 162 160 154 148 138 128 137 145 156 167 170 172 171 170 168 167 169 167
154 156 159 158 159 162 157 153 156 160 158 157 157 159 154 154 157 160 165 169 172 171 165 154 160 172 159 151 142 131 134 136 147 156 162 168 173 176 176 173 172 171 171
141 149 156 154 151 158 150 158 165 166 163 165 162 160 159 158 158 162 165 166 166 162 159 155 160 166 166 164 148 132 135 140 144 151 160 169 175 179 178 178 177 176 176
130 137 143 140 146 147 146 161 157 163 163 165 158 162 163 159 158 165 166 164 169 168 169 168 160 161 167 166 155 137 148 146 140 146 162 172 179 182 181 183 183 181 179
134 134 138 136 138 134 137 141 150 161 157 157 162 161 156 160 162 156 153 158 166 174 175 166 161 158 155 149 146 142 145 145 146 149 161 172 178 181 181 182 182 182 183
139 134 134 131 123 120 124 140 152 160 156 158 165 163 158 158 162 156 152 155 168 165 164 153 145 140 139 148 159 151 144 147 152 158 165 167 174 179 180 183 186 187 189
133 130 137 128 119 120 123 117 124 141 149 157 164 165 166 165 157 150 145 162 166 156 150 140 142 126 133 142 141 151 144 145 155 163 166 167 167 173 185 192 195 193 191
137 131 126 119 124 130 126 111 112 123 133 151 157 163 168 167 159 150 146 152 149 134 127 145 139 145 146 142 143 138 143 140 155 163 165 171 173 173 181 194 196 194 193
138 132 126 123 124 118 107 95 94 97 115 133 145 157 156 156 153 148 145 147 133 115 116 131 139 145 151 150 119 88 88 135 127 142 158 158 165 170 174 179 186 199 196
136 131 130 128 123 113 106 108 111 124 134 135 150 157 154 149 147 144 139 136 137 142 156 153 141 135 121 119 100 65 32 41 99 120 122 135 153 164 166 175 176 181 188
148 145 140 139 138 133 138 139 136 137 142 147 139 143 153 150 150 147 143 146 143 141 141 144 139 129 127 125 129 112 48 9 8 71 118 150 153 137 159 177 173 171 174
155 156 153 151 146 146 136 109 91 80 70 80 98 127 162 160 154 151 147 142 140 144 156 162 152 144 156 218 162 143 146 201 292 353 355 147 177 168 170 158 168 176 182
168 162 153 154 150 147 137 127 124 128 139 168 164 157 139 145 148 150 149 147 145 145 152 170 164 152 148 166 276 172 161 154 153 177 340 332 218 201 203 176 160 172 180
167 161 157 153 153 150 146 144 138 133 141 127 116 118 113 112 135 143 148 149 147 144 152 166 153 148 154 161 167 164 114 96 122 145 199 295 338 283 227 178 167 163 172
165 161 157 155 159 158 149 142 144 143 136 121 118 124 122 112 96 115 135 145 148 145 154 167 164 153 160 155 155 153 148 149 170 155 176 193 217 282 286 170 177 181 181
Height
1508 1508 1509 1508 1508 1508 1508 1509 1509 1509 1509 1509 1509 1510 1510 1510 1510 1511 1512 1513 1514 1515 1515 1515 1516 1518 1519 1520 1522 1524 1526 1527 1529 1530 1532 1534 1536 1538 1539 1541 1542 1543 1545
1508 1509 1510 1509 1510 1510 1510 1510 1510 1510 1510 1511 1511 1511 1512 1512 1512 1512 1513 1514 1515 1516 1517 1518 1519 1519 1520 1522 1524 1525 1527 1529 1531 1532 1534 1536 1538 1539 1541 1542 1543 1544 1546
1509 1510 1511 1511 1511 1511 1511 1512 1512 1512 1512 1513 1513 1513 1514 1514 1514 1515 1515 1516 1517 1518 1519 1519 1520 1521 1522 1523 1525 1527 1529 1531 1533 1534 1536 1538 1539 1540 1542 1543 1544 1545 1547
1510 1510 1511 1512 1512 1512 1513 1513 1513 1514 1514 1514 1515 1515 1516 1516 1516 1517 1518 1519 1519 1520 1521 1521 1522 1523 1524 1525 1527 1529 1531 1533 1535 1536 1537 1539 1540 1541 1542 1544 1545 1546 1547
1511 1512 1513 1513 1513 1513 1514 1514 1515 1515 1515 1516 1517 1517 1518 1518 1519 1519 1520 1521 1522 1522 1523 1524 1525 1525 1526 1527 1529 1531 1533 1535 1536 1538 1539 1540 1541 1542 1543 1544 1545 1546 1548
1512 1513 1514 1514 1514 1515 1515 1516 1516 1516 1517 1518 1519 1520 1520 1521 1521 1522 1523 1523 1524 1525 1526 1526 1527 1528 1529 1530 1532 1533 1535 1536 1538 1539 1540 1541 1542 1542 1544 1545 1546 1547 1548
1514 1514 1515 1516 1516 1517 1517 1517 1518 1518 1519 1520 1521 1522 1522 1523 1524 1524 1525 1525 1526 1527 1528 1528 1529 1530 1531 1532 1534 1535 1537 1538 1539 1540 1541 1542 1543 1544 1544 1545 1547 1548 1548
1515 1515 1516 1517 1518 1518 1519 1519 1519 1520 1520 1522 1522 1523 1524 1525 1526 1526 1527 1527 1528 1529 1530 1530 1531 1532 1533 1535 1536 1537 1538 1539 1540 1541 1542 1543 1543 1544 1545 1546 1547 1548 1549
1516 1516 1517 1519 1519 1520 1520 1521 1521 1521 1522 1523 1524 1525 1526 1527 1528 1528 1529 1529 1530 1531 1532 1533 1533 1535 1536 1537 1538 1539 1539 1540 1541 1542 1543 1543 1544 1545 1545 1546 1547 1548 1549
1517 1518 1518 1519 1520 1521 1522 1522 1523 1523 1524 1525 1526 1527 1528 1529 1529 1530 1531 1531 1532 1533 1534 1534 1535 1536 1537 1538 1539 1540 1541 1542 1542 1543 1543 1544 1544 1545 1546 1546 1547 1548 1549
1518 1519 1520 1520 1521 1522 1522 1523 1524 1524 1525 1526 1527 1528 1529 1530 1530 1531 1532 1533 1533 1534 1535 1536 1537 1538 1539 1539 1540 1541 1542 1542 1543 1543 1544 1544 1545 1545 1546 1547 1547 1548 1549
1518 1520 1520 1521 1521 1522 1523 1524 1524 1525 1526 1527 1527 1528 1529 1530 1531 1532 1533 1533 1534 1535 1536 1537 1538 1539 1540 1540 1541 1542 1542 1543 1543 1543 1544 1544 1545 1545 1546 1547 1547 1548 1549
1519 1520 1520 1521 1522 1523 1523 1524 1525 1526 1526 1527 1528 1529 1530 1531 1531 1532 1533 1534 1535 1536 1537 1538 1539 1539 1540 1541 1542 1542 1543 1543 1543 1544 1544 1544 1545 1545 1546 1547 1547 1548 1549
1520 1520 1521 1521 1522 1523 1524 1525 1525 1526 1527 1527 1528 1529 1530 1530 1531 1532 1533 1534 1535 1536 1537 1538 1539 1540 1541 1541 1542 1542 1543 1543 1544 1544 1544 1545 1545 1546 1546 1547 1547 1548 1549
1520 1521 1521 1522 1522 1523 1524 1524 1525 1526 1527 1527 1528 1529 1530 1531 1531 1532 1533 1534 1535 1537 1538 1539 1539 1540 1541 1541 1542 1542 1543 1543 1544 1544 1544 1545 1545 1545 1546 1546 1547 1548 1548
1521 1522 1522 1522 1523 1524 1524 1525 1525 1526 1527 1528 1529 1530 1530 1531 1532 1533 1533 1534 1535 1537 1538 1539 1540 1540 1541 1542 1542 1542 1543 1543 1544 1544 1544 1545 1545 1545 1546 1546 1547 1547 1548
1522 1522 1523 1523 1523 1524 1524 1525 1525 1526 1527 1528 1529 1530 1531 1531 1532 1533 1533 1534 1535 1537 1538 1539 1540 1541 1541 1542 1542 1542 1543 1543 1544 1544 1544 1545 1545 1545 1545 1546 1546 1546 1547
1522 1523 1523 1524 1524 1524 1525 1525 1526 1527 1528 1529 1530 1531 1531 1532 1533 1533 1534 1534 1536 1537 1538 1539 1540 1540 1541 1541 1542 1542 1543 1543 1544 1544 1544 1544 1545 1545 1545 1545 1545 1545 1546
1523 1524 1524 1524 1525 1525 1526 1526 1526 1527 1528 1529 1530 1531 1532 1532 1533 1533 1534 1535 1536 1537 1538 1539 1539 1540 1541 1542 1542 1542 1543 1543 1543 1543 1543 1544 1544 1544 1544 1545 1545 1545 1545
1524 1524 1525 1526 1526 1526 1526 1527 1527 1528 1529 1530 1530 1531 1532 1533 1533 1534 1535 1536 1537 1537 1538 1539 1539 1540 1541 1541 1542 1542 1543 1543 1543 1543 1543 1543 1543 1543 1544 1544 1544 1544 1545
1524 1525 1525 1526 1526 1527 1527 1527 1528 1529 1530 1530 1531 1531 1532 1533 1533 1534 1535 1536 1537 1537 1538 1539 1539 1540 1541 1541 1541 1542 1542 1543 1543 1543 1543 1543 1543 1543 1543 1544 1544 1544 1544
1524 1525 1526 1526 1527 1527 1528 1528 1529 1529 1530 1530 1531 1532 1533 1533 1534 1534 1535 1536 1537 1537 1538 1539 1539 1540 1541 1541 1541 1541 1542 1543 1542 1543 1543 1543 1543 1543 1543 1544 1544 1544 1543
1524 1525 1526 1527 1527 1528 1528 1529 1530 1530 1531 1531 1532 1532 1533 1533 1534 1534 1535 1536 1536 1537 1538 1539 1539 1540 1540 1541 1541 1541 1541 1541 1542 1543 1542 1542 1542 1542 1543 1543 1543 1543 1543
1524 1525 1526 1527 1528 1528 1529 1529 1530 1530 1530 1531 1532 1532 1533 1533 1534 1534 1535 1536 1536 1537 1538 1538 1539 1539 1540 1540 1540 1541 1541 1541 1541 1542 1543 1542 1542 1542 1542 1542 1542 1542 1542
1523 1524 1526 1527 1528 1528 1529 1529 1530 1530 1531 1531 1532 1532 1533 1533 1534 1534 1535 1535 1536 1537 1537 1538 1539 1539 1539 1540 1540 1540 1540 1541 1540 1540 1541 1541 1541 1541 1541 1541 1541 1541 1541
1522 1524 1525 1527 1528 1528 1529 1529 1530 1530 1531 1531 1532 1532 1533 1533 1534 1534 1535 1535 1536 1536 1537 1538 1538 1539 1539 1539 1539 1540 1540 1540 1539 1539 1539 1540 1540 1541 1541 1540 1540 1540 1540